Location: Newark
(37.3981°N, 88.3750°W)
Time: 09:44:11
(UTC+00:00)

ISS - Visible Passes

Search period start: 24 September 2019 00:00
Search period end: 04 October 2019 00:00
Orbit: 411 x 421 km, 51.6° (Epoch: 24 September)

Date Brightness Start Highest point End Pass type
(mag) Time Alt. Az. Time Alt. Az. Time Alt. Az.
24 Sep -1.4 00:45:30 10° W 00:48:06 21° NNW 00:50:42 10° NNE visible
26 Sep -0.9 00:47:04 10° NW 00:48:21 12° NNW 00:49:38 10° N visible
03 Oct -1.0 01:36:11 10° NNW 01:36:49 13° N 01:36:49 13° N visible
